When you browse on this site, cookies collect data to enhance your experience and personalize the content and advertising you see.
Visit our Privacy Policy to learn more. By continuing to use the site, you agree to this use of cookies and data.
  • In Hungary
  • List of Countries
  • For 7 days
  • Water Temperature
  • Satellite Maps
  • Weather Map
  • News
  • Weather Widgets
  • user-avatar
    Login

    Hourly Weather Soma Bey

    Today, 19 November, Monday

    Time Temperature Precipitation Wind Pressure Humidity
    00:00 +22°C° 0 mm 3 mps 750 mmHg 37%
    01:00 +21°C° 0 mm 3 mps 750 mmHg 36%
    02:00 +21°C° 0 mm 3 mps 749 mmHg 34%
    03:00 +20°C° 0 mm 2 mps 749 mmHg 34%
    04:00 +20°C° 0 mm 2 mps 749 mmHg 33%
    05:00 +20°C° 0 mm 2 mps 750 mmHg 32%
    06:00 +21°C° 0 mm 2 mps 750 mmHg 29%
    07:00 +24°C° 0 mm 3 mps 750 mmHg 25%
    08:00 +26°C° 0 mm 2 mps 751 mmHg 22%
    09:00 +27°C° 0 mm 3 mps 751 mmHg 20%
    10:00 +28°C° 0 mm 3 mps 751 mmHg 19%
    11:00 +29°C° 0 mm 3 mps 751 mmHg 17%
    12:00 +30°C° 0 mm 4 mps 751 mmHg 17%
    13:00 +30°C° 0 mm 4 mps 751 mmHg 16%
    14:00 +32°C° 0 mm 5 mps 750 mmHg 16%
    15:00 +30°C° 0 mm 5 mps 750 mmHg 19%
    16:00 +28°C° 0 mm 5 mps 750 mmHg 22%
    17:00 +27°C° 0 mm 5 mps 750 mmHg 25%
    18:00 +26°C° 0 mm 5 mps 751 mmHg 28%
    19:00 +25°C° 0 mm 4 mps 751 mmHg 31%
    20:00 +23°C° 0 mm 4 mps 751 mmHg 33%
    21:00 +23°C° 0 mm 4 mps 751 mmHg 34%
    22:00 +22°C° 0 mm 4 mps 752 mmHg 35%
    23:00 +21°C° 0 mm 4 mps 752 mmHg 36%

    Tomorrow, 20 November, Tuesday

    Time Temperature Precipitation Wind Pressure Humidity
    00:00 +21°C° 0 mm 4 mps 752 mmHg 36%
    01:00 +20°C° 0 mm 4 mps 751 mmHg 36%
    02:00 +20°C° 0 mm 3 mps 751 mmHg 35%
    03:00 +20°C° 0 mm 3 mps 751 mmHg 35%
    04:00 +19°C° 0 mm 4 mps 752 mmHg 34%
    05:00 +19°C° 0 mm 4 mps 752 mmHg 34%
    06:00 +21°C° 0 mm 4 mps 752 mmHg 31%
    07:00 +23°C° 0 mm 4 mps 753 mmHg 28%
    08:00 +25°C° 0 mm 4 mps 753 mmHg 25%
    09:00 +27°C° 0 mm 4 mps 753 mmHg 24%
    10:00 +28°C° 0 mm 5 mps 753 mmHg 23%
    11:00 +29°C° 0 mm 5 mps 753 mmHg 22%
    12:00 +30°C° 0 mm 5 mps 753 mmHg 23%
    13:00 +30°C° 0 mm 5 mps 752 mmHg 23%
    14:00 +30°C° 0 mm 5 mps 752 mmHg 24%
    15:00 +29°C° 0 mm 5 mps 752 mmHg 29%
    16:00 +28°C° 0 mm 4 mps 752 mmHg 33%
    17:00 +27°C° 0 mm 4 mps 751 mmHg 37%
    18:00 +26°C° 0 mm 4 mps 752 mmHg 40%
    19:00 +25°C° 0 mm 3 mps 752 mmHg 43%
    20:00 +24°C° 0 mm 3 mps 752 mmHg 46%
    21:00 +24°C° 0 mm 3 mps 752 mmHg 44%
    22:00 +24°C° 0 mm 3 mps 752 mmHg 43%
    23:00 +22°C° 0 mm 4 mps 752 mmHg 42%

    Day after tomorrow, 21 November, Wednesday

    Time Temperature Precipitation Wind Pressure Humidity
    00:00 +22°C° 0 mm 4 mps 752 mmHg 41%
    01:00 +22°C° 0 mm 3 mps 752 mmHg 39%
    02:00 +21°C° 0 mm 3 mps 751 mmHg 38%
    03:00 +21°C° 0 mm 3 mps 751 mmHg 38%
    04:00 +21°C° 0 mm 3 mps 751 mmHg 38%
    05:00 +20°C° 0 mm 3 mps 751 mmHg 37%
    06:00 +22°C° 0 mm 3 mps 751 mmHg 34%
    07:00 +25°C° 0 mm 3 mps 751 mmHg 30%
    08:00 +26°C° 0 mm 3 mps 752 mmHg 27%
    09:00 +27°C° 0 mm 3 mps 752 mmHg 26%
    10:00 +29°C° 0 mm 3 mps 751 mmHg 24%
    11:00 +30°C° 0 mm 3 mps 751 mmHg 23%
    12:00 +30°C° 0 mm 3 mps 751 mmHg 23%
    13:00 +32°C° 0 mm 4 mps 750 mmHg 24%
    14:00 +32°C° 0 mm 4 mps 749 mmHg 24%
    15:00 +30°C° 0 mm 4 mps 749 mmHg 29%
    16:00 +29°C° 0 mm 3 mps 749 mmHg 33%
    17:00 +27°C° 0 mm 3 mps 749 mmHg 37%
    18:00 +27°C° 0 mm 3 mps 750 mmHg 40%
    19:00 +26°C° 0 mm 3 mps 750 mmHg 44%
    20:00 +25°C° 0 mm 3 mps 750 mmHg 48%
    21:00 +24°C° 0 mm 3 mps 750 mmHg 49%
    22:00 +24°C° 0 mm 3 mps 750 mmHg 50%
    23:00 +23°C° 0 mm 2 mps 750 mmHg 51%

    22 November, Thursday

    Time Temperature Precipitation Wind Pressure Humidity
    00:00 +23°C° 0 mm 2 mps 750 mmHg 50%
    01:00 +22°C° 0 mm 3 mps 749 mmHg 48%
    02:00 +22°C° 0 mm 3 mps 749 mmHg 47%
    03:00 +22°C° 0 mm 3 mps 749 mmHg 46%
    04:00 +21°C° 0 mm 3 mps 749 mmHg 46%
    05:00 +21°C° 0 mm 3 mps 749 mmHg 46%
    06:00 +22°C° 0 mm 4 mps 749 mmHg 41%
    07:00 +25°C° 0 mm 4 mps 750 mmHg 36%
    08:00 +26°C° 0 mm 5 mps 750 mmHg 31%
    09:00 +27°C° 0 mm 6 mps 750 mmHg 28%
    10:00 +29°C° 0 mm 7 mps 750 mmHg 25%
    11:00 +31°C° 0 mm 8 mps 750 mmHg 22%
    12:00 +30°C° 0 mm 7 mps 749 mmHg 23%
    13:00 +30°C° 0 mm 6 mps 748 mmHg 23%
    14:00 +32°C° 0 mm 5 mps 748 mmHg 23%
    15:00 +29°C° 0 mm 4 mps 748 mmHg 27%
    16:00 +28°C° 0 mm 4 mps 748 mmHg 31%
    17:00 +27°C° 0 mm 4 mps 748 mmHg 34%
    18:00 +26°C° 0 mm 3 mps 749 mmHg 38%
    19:00 +25°C° 0 mm 3 mps 749 mmHg 41%
    20:00 +25°C° 0 mm 3 mps 749 mmHg 45%
    21:00 +24°C° 0 mm 3 mps 749 mmHg 45%
    22:00 +24°C° 0 mm 3 mps 749 mmHg 46%
    23:00 +22°C° 0 mm 3 mps 749 mmHg 46%

    23 November, Friday

    Time Temperature Precipitation Wind Pressure Humidity
    00:00 +22°C° 0 mm 3 mps 749 mmHg 46%
    01:00 +22°C° 0 mm 3 mps 749 mmHg 46%
    02:00 +21°C° 0 mm 3 mps 748 mmHg 46%
    03:00 +21°C° 0 mm 4 mps 749 mmHg 46%
    04:00 +21°C° 0 mm 4 mps 749 mmHg 46%
    05:00 +20°C° 0 mm 4 mps 749 mmHg 46%
    06:00 +21°C° 0 mm 4 mps 749 mmHg 43%
    07:00 +23°C° 0 mm 4 mps 750 mmHg 40%
    08:00 +25°C° 0 mm 4 mps 750 mmHg 38%
    09:00 +26°C° 0 mm 4 mps 750 mmHg 34%
    10:00 +27°C° 0 mm 5 mps 750 mmHg 30%
    11:00 +28°C° 0 mm 5 mps 750 mmHg 26%
    12:00 +28°C° 0 mm 5 mps 750 mmHg 24%
    13:00 +28°C° 0 mm 6 mps 749 mmHg 23%
    14:00 +29°C° 0 mm 6 mps 749 mmHg 22%
    15:00 +28°C° 0 mm 6 mps 749 mmHg 25%
    16:00 +27°C° 0 mm 6 mps 749 mmHg 28%
    17:00 +26°C° 0 mm 5 mps 749 mmHg 31%
    18:00 +25°C° 0 mm 5 mps 750 mmHg 34%
    19:00 +23°C° 0 mm 5 mps 750 mmHg 37%
    20:00 +22°C° 0 mm 5 mps 750 mmHg 39%
    21:00 +21°C° 0 mm 5 mps 750 mmHg 42%
    22:00 +21°C° 0 mm 5 mps 750 mmHg 45%
    23:00 +20°C° 0 mm 4 mps 750 mmHg 48%

    24 November, Saturday

    Time Temperature Precipitation Wind Pressure Humidity
    00:00 +20°C° 0 mm 4 mps 750 mmHg 50%
    01:00 +19°C° 0 mm 4 mps 750 mmHg 52%
    02:00 +19°C° 0 mm 4 mps 750 mmHg 54%
    03:00 +18°C° 0 mm 4 mps 750 mmHg 56%
    04:00 +18°C° 0 mm 4 mps 750 mmHg 58%
    05:00 +17°C° 0 mm 4 mps 750 mmHg 61%
    06:00 +18°C° 0 mm 4 mps 750 mmHg 59%
    07:00 +19°C° 0 mm 4 mps 751 mmHg 57%
    08:00 +20°C° 0 mm 4 mps 751 mmHg 55%
    09:00 +21°C° 0 mm 5 mps 751 mmHg 48%
    10:00 +22°C° 0 mm 5 mps 751 mmHg 41%
    11:00 +23°C° 0 mm 5 mps 751 mmHg 34%
    12:00 +25°C° 0 mm 5 mps 751 mmHg 32%
    13:00 +25°C° 0 mm 5 mps 750 mmHg 31%
    14:00 +25°C° 0 mm 5 mps 750 mmHg 30%
    15:00 +25°C° 0 mm 5 mps 750 mmHg 32%
    16:00 +23°C° 0 mm 5 mps 750 mmHg 35%
    17:00 +22°C° 0 mm 5 mps 750 mmHg 37%
    18:00 +21°C° 0 mm 5 mps 751 mmHg 41%
    19:00 +21°C° 0 mm 5 mps 751 mmHg 46%
    20:00 +20°C° 0 mm 6 mps 751 mmHg 50%
    21:00 +19°C° 0 mm 5 mps 751 mmHg 52%
    22:00 +19°C° 0 mm 5 mps 751 mmHg 54%
    23:00 +17°C° 0 mm 5 mps 751 mmHg 57%
    Show more